Location: Canyon City
(32.5951°N, 116.5278°W)
Time: 02:19:49
(UTC+00:00)

ATLAS 5 CENTAUR R/B - Pass Details

Date: 08 September 2024
Orbit: 410 x 1155 km, 63.3° (Epoch: 03 October)

Event Time Altitude Azimuth Distance (km) Brightness Sun altitude
Exits shadow 12:41:59 - 210° (SSW) 1,799 3.5 -9.9°
Reaches altitude 10° 12:42:44 10° 211° (SSW) 1,477 3.1 -9.8°
Maximum altitude 12:45:55 85° 296° (WNW) 415 0.6 -9.1°
Drops below altitude 10° 12:49:05 11° 29° (NNE) 1,465 4.1 -8.5°
Sets 12:51:20 0° 30° (NNE) 2,431 5.3 -8.0°
